星链-5063 (STARLINK-5063 )

导读 | 星芒AI

STARLINK-5063 是 SpaceX Starlink 项目中的一颗低轨通信卫星,属于第 6 批次发射的卫星群。该卫星旨在为全球用户提供高速互联网服务,尤其在偏远地区。它运行在约 550 公里的轨道高度,采用先进通信技术,支持高频段数据传输。Starlink 卫星群由数千颗卫星组成,目标是构建覆盖全球的宽带网络。STARLINK-5063 的部署有助于提升网络覆盖和连接稳定性,推动全球数字包容性发展。

基本信息
目录编号:
53907
目录名称:
STARLINK-5063
国际标识:
2022-119X
轨道中心:
EARTH
卫星名称:
星链-5063
卫星全名:
星链-5063 (STARLINK-5063 )
卫星状态:
已陨落 最后检测时间 2025-02-27
发射日期:
2022-09-24 UTC
国别 :
美国 (US)
星等 :
--
轨道信息
数据来源 国际轨道数据
星历时间: 2025-02-27T06:18:46+0800
轨道信息已过期297天
半长轴: 6526.884km
偏心率: 0.0004909
轨道倾角: 53.193°
近地点辐角 270.295°
升交点赤经 182.405°
平近点角 192.630°
近地点: 145.544km
远地点: 151.954km
周期: 87.462分钟
每日圈数: 16.464328
详细信息
固有亮度:
5
最大亮度:
2.5
卫星平台:
Starlink v1.5
覆盖范围:
全球
运营商:
太空探索技术公司
运营商所在国:
美国
制造商(研发单位):
太空探索技术公司
制造商所在国:
美国
使用方式:
暂无
卫星简介
星链(Starlink)计划是由太空探索技术公司(SpaceX)提出的一个巨型低轨卫星互联网星座项目,计划在2019年至2024年间在太空搭建由约1.2万颗卫星组成的“星链”网络,其中1584颗将部署在地球上空550千米处的近地轨道,并从2020年开始工作。该卫星仍在工作。